Location: Vienna
(48.2082°N, 16.3738°E)
Time: 00:52:45
(UTC+02:00)

ISS - Pass Details

Date: 21 July 2018
Orbit: 402 x 408 km, 51.6° (Epoch: 16 July)

Event Time Altitude Azimuth Distance (km) Brightness Sun altitude
Rises 22:53:28 0° 251° (WSW) 2,316 0.2 -15.7°
Reaches altitude 10° 22:55:33 10° 252° (WSW) 1,459 -0.9 -15.9°
Maximum altitude 22:58:49 78° 339° (NNW) 419 -3.7 -16.2°
Drops below altitude 10° 23:02:07 10° 67° (ENE) 1,467 -1.1 -16.5°
Sets 23:04:12 0° 69° (ENE) 2,330 0.0 -16.6°
